Location: Calvatone
(45.1167°N, 10.4333°E)
Time: 12:08:18
(UTC+00:00)

Cosmos 1607 - Pass Details

Date: 28 January 2023
Orbit: 921 x 981 km, 65.0° (Epoch: 29 March)

Event Time Altitude Azimuth Distance (km) Brightness Sun altitude
Rises 18:02:50 0° 219° (SW) 3,550 7.7 -18.2°
Reaches altitude 10° 18:05:20 10° 222° (SW) 2,613 6.9 -18.7°
Maximum altitude 18:11:25 74° 307° (NW) 965 4.0 -19.7°
Enters shadow 18:16:04 19° 31° (NNE) 2,098 5.4 -20.5°
